timestamp,wind_dir_avg,wind_spd_avg,wind_spd_max_dir,wind_spd_gust,battery_voltage,lat,long
2023-10-21 00:04:00+00:00,247.0,7.47,247.0,8.44,12.41,47.59359,-54.27349
2023-10-21 00:14:00+00:00,248.0,7.3,245.0,8.06,12.41,47.59359,-54.27349
2023-10-21 00:24:00+00:00,246.0,6.09,249.0,7.24,12.41,47.59359,-54.27349
2023-10-21 00:34:00+00:00,245.0,6.43,261.0,8.5,12.41,47.59359,-54.27349
2023-10-21 00:44:00+00:00,247.0,6.23,248.0,7.13,12.41,47.59359,-54.27349
2023-10-21 00:54:00+00:00,246.0,7.0,242.0,7.45,12.41,47.59359,-54.27349
2023-10-21 01:04:00+00:00,249.0,6.9,249.0,7.37,12.41,47.59359,-54.27349
2023-10-21 01:14:01+00:00,252.0,7.25,253.0,8.41,12.41,47.59359,-54.27349
2023-10-21 01:24:01+00:00,252.0,6.77,252.0,7.45,12.41,47.59359,-54.27349
2023-10-21 01:34:01+00:00,250.0,6.01,251.0,7.12,12.41,47.59359,-54.27349
2023-10-21 01:44:01+00:00,251.0,5.9,248.0,6.68,12.41,47.59359,-54.27349
2023-10-21 01:54:01+00:00,252.0,6.19,254.0,7.15,12.41,47.59359,-54.27349
2023-10-21 02:04:01+00:00,251.0,6.79,252.0,7.4,12.41,47.59359,-54.27349
2023-10-21 02:14:00+00:00,242.0,5.57,244.0,6.25,12.41,47.59359,-54.27349
2023-10-21 02:24:00+00:00,233.0,3.74,227.0,4.49,12.41,47.59359,-54.27349
2023-10-21 02:34:00+00:00,218.0,4.89,215.0,5.41,12.41,47.59359,-54.27349
2023-10-21 02:44:00+00:00,221.0,4.98,222.0,5.56,12.41,47.59359,-54.27349
2023-10-21 02:54:00+00:00,223.0,4.23,224.0,4.91,12.41,47.59359,-54.27349
2023-10-21 03:04:00+00:00,229.0,3.48,229.0,3.91,12.41,47.59359,-54.27349
2023-10-21 03:14:01+00:00,229.0,4.28,221.0,4.98,12.41,47.59359,-54.27349
2023-10-21 03:24:01+00:00,223.0,4.47,229.0,4.85,12.41,47.59359,-54.27349
2023-10-21 03:34:01+00:00,212.0,3.99,213.0,4.28,12.41,47.59359,-54.27349
2023-10-21 03:44:01+00:00,191.0,3.04,194.0,3.41,12.41,47.59359,-54.27349
2023-10-21 03:54:01+00:00,193.0,3.66,196.0,4.13,12.41,47.59359,-54.27349
2023-10-21 04:04:01+00:00,192.0,4.2,199.0,5.05,12.41,47.59359,-54.27349
2023-10-21 04:14:01+00:00,203.0,4.95,206.0,5.26,12.41,47.59359,-54.27349
2023-10-21 04:24:01+00:00,205.0,4.84,207.0,5.41,12.41,47.59359,-54.27349
2023-10-21 04:34:01+00:00,216.0,5.42,220.0,5.79,12.41,47.59359,-54.27349
2023-10-21 04:44:01+00:00,231.0,4.45,223.0,5.23,12.41,47.59359,-54.27349
2023-10-21 04:54:01+00:00,224.0,4.26,218.0,4.87,12.41,47.59359,-54.27349
2023-10-21 05:04:01+00:00,232.0,4.93,235.0,5.64,12.41,47.59359,-54.27349
2023-10-21 05:14:00+00:00,233.0,5.38,238.0,6.7,12.33,47.59359,-54.27349
2023-10-21 05:24:00+00:00,230.0,4.65,229.0,5.4,12.33,47.59359,-54.27349
2023-10-21 05:34:00+00:00,215.0,4.11,216.0,4.5,12.33,47.59359,-54.27349
2023-10-21 05:44:00+00:00,204.0,5.01,204.0,5.2,12.33,47.59359,-54.27349
2023-10-21 05:54:00+00:00,203.0,4.2,203.0,4.48,12.33,47.59359,-54.27349
2023-10-21 06:04:00+00:00,211.0,4.55,214.0,5.19,12.33,47.59359,-54.27349
2023-10-21 06:14:01+00:00,209.0,5.11,207.0,5.45,12.33,47.59359,-54.27349
2023-10-21 06:24:01+00:00,212.0,4.65,214.0,4.91,12.33,47.59359,-54.27349
2023-10-21 06:34:01+00:00,204.0,4.07,206.0,4.35,12.33,47.59359,-54.27349
2023-10-21 06:44:01+00:00,207.0,6.18,206.0,7.14,12.33,47.59359,-54.27349
2023-10-21 06:54:01+00:00,206.0,7.49,203.0,8.29,12.33,47.59359,-54.27349
2023-10-21 07:04:01+00:00,207.0,7.32,206.0,8.11,12.33,47.59359,-54.27349
2023-10-21 07:14:00+00:00,209.0,6.53,208.0,7.45,12.33,47.59359,-54.27349
2023-10-21 07:24:00+00:00,205.0,5.6,205.0,6.32,12.33,47.59359,-54.27349
2023-10-21 07:34:00+00:00,206.0,7.18,205.0,7.94,12.33,47.59359,-54.27349
2023-10-21 07:44:00+00:00,205.0,6.51,206.0,7.42,12.33,47.59359,-54.27349
2023-10-21 07:54:00+00:00,209.0,5.56,206.0,6.17,12.33,47.59359,-54.27349
2023-10-21 08:04:00+00:00,204.0,5.45,208.0,6.05,12.33,47.59359,-54.27349
2023-10-21 08:14:00+00:00,202.0,5.71,209.0,6.3,12.25,47.59359,-54.27349
2023-10-21 08:24:00+00:00,200.0,6.04,199.0,6.67,12.25,47.59359,-54.27349
2023-10-21 08:34:00+00:00,201.0,5.58,205.0,6.12,12.25,47.59359,-54.27349
2023-10-21 08:44:00+00:00,203.0,4.38,202.0,5.0,12.25,47.59359,-54.27349
2023-10-21 08:54:00+00:00,197.0,4.31,199.0,4.76,12.25,47.59359,-54.27349
2023-10-21 09:04:00+00:00,204.0,4.09,201.0,4.79,12.25,47.59359,-54.27349
2023-10-21 09:14:01+00:00,210.0,4.22,208.0,4.9,12.25,47.59359,-54.27349
2023-10-21 09:24:01+00:00,209.0,5.36,211.0,5.98,12.25,47.59359,-54.27349
2023-10-21 09:34:01+00:00,203.0,5.84,201.0,6.22,12.25,47.59359,-54.27349
2023-10-21 09:44:01+00:00,205.0,6.7,208.0,7.14,12.25,47.59359,-54.27349
2023-10-21 09:54:01+00:00,207.0,6.12,207.0,6.47,12.25,47.59359,-54.27349
2023-10-21 10:04:01+00:00,214.0,5.49,217.0,5.93,12.25,47.59359,-54.27349
2023-10-21 10:14:01+00:00,218.0,5.83,218.0,6.53,12.25,47.59359,-54.27349
2023-10-21 10:24:01+00:00,214.0,6.52,216.0,7.15,12.25,47.59359,-54.27349
2023-10-21 10:34:01+00:00,220.0,5.79,218.0,6.91,12.25,47.59359,-54.27349
2023-10-21 10:44:01+00:00,213.0,6.7,214.0,7.36,12.25,47.59359,-54.27349
2023-10-21 10:54:01+00:00,214.0,6.67,213.0,8.0,12.25,47.59359,-54.27349
2023-10-21 11:04:01+00:00,217.0,6.34,215.0,7.24,12.25,47.59359,-54.27349
2023-10-21 11:14:01+00:00,224.0,5.52,219.0,6.43,12.25,47.59359,-54.27349
2023-10-21 11:24:01+00:00,219.0,5.82,217.0,6.44,12.25,47.59359,-54.27349
2023-10-21 11:34:01+00:00,214.0,8.16,221.0,8.86,12.25,47.59359,-54.27349
2023-10-21 11:44:01+00:00,220.0,7.06,225.0,8.19,12.25,47.59359,-54.27349
2023-10-21 11:54:01+00:00,206.0,8.71,208.0,10.03,12.25,47.59359,-54.27349
2023-10-21 12:04:01+00:00,199.0,10.46,198.0,11.64,12.25,47.59359,-54.27349
2023-10-21 12:14:00+00:00,204.0,9.11,203.0,9.89,12.25,47.59359,-54.27349
2023-10-21 12:24:00+00:00,206.0,10.14,203.0,10.85,12.25,47.59359,-54.27349
2023-10-21 12:34:00+00:00,198.0,10.61,199.0,12.21,12.25,47.59359,-54.27349
2023-10-21 12:44:00+00:00,196.0,10.47,196.0,12.24,12.25,47.59359,-54.27349
2023-10-21 12:54:00+00:00,188.0,11.03,190.0,13.25,12.25,47.59359,-54.27349
2023-10-21 13:04:00+00:00,187.0,10.74,187.0,12.76,12.25,47.59359,-54.27349
2023-10-21 13:14:00+00:00,186.0,11.64,193.0,13.1,12.57,47.59359,-54.27349
2023-10-21 13:24:00+00:00,190.0,11.78,192.0,14.24,12.57,47.59359,-54.27349
2023-10-21 13:34:00+00:00,188.0,13.02,192.0,15.78,12.57,47.59359,-54.27349
2023-10-21 13:44:00+00:00,189.0,13.08,192.0,14.95,12.57,47.59359,-54.27349
2023-10-21 13:54:00+00:00,187.0,13.47,190.0,15.51,12.57,47.59359,-54.27349
2023-10-21 14:04:00+00:00,188.0,14.41,193.0,16.65,12.57,47.59359,-54.27349
2023-10-21 14:14:00+00:00,185.0,13.83,182.0,15.26,12.97,47.59359,-54.27349
2023-10-21 14:24:00+00:00,189.0,15.64,189.0,17.88,12.97,47.59359,-54.27349
2023-10-21 14:34:00+00:00,184.0,13.95,187.0,18.07,12.97,47.59359,-54.27349
2023-10-21 14:44:00+00:00,185.0,14.48,188.0,17.33,12.97,47.59359,-54.27349
2023-10-21 14:54:00+00:00,189.0,14.76,195.0,17.1,12.97,47.59359,-54.27349
2023-10-21 15:04:00+00:00,184.0,13.08,184.0,14.94,12.97,47.59359,-54.27349
2023-10-21 15:14:00+00:00,181.0,10.39,186.0,13.31,13.05,47.59359,-54.27349
2023-10-21 15:24:00+00:00,178.0,12.33,177.0,15.1,13.05,47.59359,-54.27349
2023-10-21 15:34:00+00:00,183.0,11.19,187.0,13.53,13.05,47.59359,-54.27349
2023-10-21 15:44:00+00:00,184.0,12.64,184.0,15.0,13.05,47.59359,-54.27349
2023-10-21 15:54:00+00:00,182.0,13.04,181.0,15.09,13.05,47.59359,-54.27349
2023-10-21 16:04:00+00:00,179.0,14.36,181.0,16.81,13.05,47.59359,-54.27349
2023-10-21 16:14:00+00:00,175.0,15.34,179.0,18.2,12.97,47.59359,-54.27349
2023-10-21 16:24:00+00:00,176.0,11.96,169.0,13.56,12.97,47.59359,-54.27349
2023-10-21 16:34:00+00:00,177.0,12.43,177.0,16.03,12.97,47.59359,-54.27349
2023-10-21 16:44:00+00:00,174.0,11.6,173.0,13.52,12.97,47.59359,-54.27349
2023-10-21 16:54:00+00:00,174.0,12.44,176.0,17.08,12.97,47.59359,-54.27349
2023-10-21 17:04:00+00:00,173.0,12.82,167.0,14.3,12.97,47.59359,-54.27349
2023-10-21 17:14:00+00:00,170.0,12.89,171.0,16.07,12.73,47.59359,-54.27349
2023-10-21 17:24:00+00:00,175.0,11.02,181.0,13.3,12.73,47.59359,-54.27349
2023-10-21 17:34:00+00:00,167.0,14.73,160.0,17.02,12.73,47.59359,-54.27349
2023-10-21 17:44:00+00:00,164.0,12.89,166.0,15.84,12.73,47.59359,-54.27349
2023-10-21 17:54:00+00:00,170.0,16.89,154.0,20.87,12.73,47.59359,-54.27349
2023-10-21 18:04:00+00:00,167.0,17.01,176.0,21.51,12.73,47.59359,-54.27349
2023-10-21 18:14:01+00:00,165.0,16.87,155.0,21.74,12.57,47.59359,-54.27349
2023-10-21 18:24:01+00:00,166.0,17.39,151.0,21.44,12.57,47.59359,-54.27349
2023-10-21 18:34:01+00:00,168.0,17.24,167.0,20.38,12.57,47.59359,-54.27349
2023-10-21 18:44:01+00:00,164.0,21.76,166.0,25.31,12.57,47.59359,-54.27349
2023-10-21 18:54:01+00:00,164.0,19.67,156.0,24.24,12.57,47.59359,-54.27349
2023-10-21 19:04:01+00:00,172.0,16.83,163.0,22.05,12.57,47.59359,-54.27349
2023-10-21 19:14:01+00:00,179.0,17.34,183.0,20.54,12.41,47.59359,-54.27349
2023-10-21 19:24:01+00:00,170.0,15.71,164.0,20.4,12.41,47.59359,-54.27349
2023-10-21 19:34:01+00:00,179.0,19.37,178.0,22.15,12.41,47.59359,-54.27349
2023-10-21 19:44:01+00:00,178.0,19.04,179.0,22.76,12.41,47.59359,-54.27349
2023-10-21 19:54:01+00:00,177.0,17.79,177.0,20.9,12.41,47.59359,-54.27349
2023-10-21 20:04:01+00:00,178.0,18.8,181.0,22.07,12.41,47.59359,-54.27349
2023-10-21 20:14:01+00:00,177.0,17.65,180.0,20.67,12.41,47.59359,-54.27349
2023-10-21 20:24:01+00:00,180.0,17.63,178.0,21.44,12.41,47.59359,-54.27349
2023-10-21 20:34:01+00:00,179.0,16.45,177.0,20.0,12.41,47.59359,-54.27349
2023-10-21 20:44:01+00:00,178.0,18.17,168.0,23.22,12.41,47.59359,-54.27349
2023-10-21 20:54:01+00:00,177.0,17.84,177.0,20.84,12.41,47.59359,-54.27349
2023-10-21 21:04:01+00:00,180.0,20.82,179.0,22.77,12.41,47.59359,-54.27349
2023-10-21 21:14:00+00:00,182.0,18.78,188.0,23.35,12.33,47.59359,-54.27349
2023-10-21 21:24:00+00:00,181.0,20.81,179.0,24.35,12.33,47.59359,-54.27349
2023-10-21 21:34:00+00:00,181.0,19.74,177.0,25.6,12.33,47.59359,-54.27349
2023-10-21 21:44:00+00:00,183.0,17.0,204.0,22.09,12.33,47.59359,-54.27349
2023-10-21 21:54:00+00:00,182.0,15.1,182.0,17.37,12.33,47.59359,-54.27349
2023-10-21 22:04:00+00:00,182.0,15.72,182.0,19.68,12.33,47.59359,-54.27349
2023-10-21 22:14:01+00:00,179.0,18.02,182.0,21.36,12.33,47.59359,-54.27349
2023-10-21 22:24:01+00:00,178.0,16.74,186.0,20.02,12.33,47.59359,-54.27349
2023-10-21 22:34:01+00:00,180.0,18.55,181.0,21.9,12.33,47.59359,-54.27349
2023-10-21 22:44:01+00:00,189.0,20.58,206.0,25.21,12.33,47.59359,-54.27349
2023-10-21 22:54:01+00:00,183.0,21.91,181.0,27.26,12.33,47.59359,-54.27349
2023-10-21 23:04:01+00:00,189.0,18.33,199.0,23.79,12.33,47.59359,-54.27349
2023-10-21 23:14:01+00:00,212.0,15.71,214.0,21.86,12.25,47.59359,-54.27349
2023-10-21 23:24:01+00:00,208.0,16.75,198.0,20.91,12.25,47.59359,-54.27349
2023-10-21 23:34:01+00:00,208.0,18.22,206.0,22.65,12.25,47.59359,-54.27349
2023-10-21 23:44:01+00:00,209.0,16.85,209.0,19.35,12.25,47.59359,-54.27349
2023-10-21 23:54:01+00:00,201.0,18.03,209.0,23.02,12.25,47.59359,-54.27349
